DMSP 5D-2 F13 DEB, 40497

Orbit data source: Space-Track

DMSP 5D-2 F13 DEB, 40497 is space debris in SSO originally from a launch on Fri, 24 Mar 1995 UTC launched from the Air Force Western Test Range (AFWTR). Debris objects in space refer to the collection of defunct objects orbiting the Earth. Examples of debris include non-operational satellites, rocket bodies, and fragments generated from explosions, collisions, or faulty payload assembly.

Loading next visibility...
DMSP 5D-2 F13 DEB details
Identifier
40497, 1995-015CL
Orbit
SSO
Last TLE update1 day ago
Origin
Flag of USUSAF SMC (US)
ManufacturerUnknown
MissionSpacecraft
Bus & MotorUnknown
MassUnknown
Launch date (UTC)
1995-03-24 (30 years ago)
Launch vehicleUnknown
Launch site
Air Force Western Test Range (AFWTR)
Object type
Payload
Rocket body
Debris
Shape & HBRUnknown
Radar Cross SectionSmall (<0.1 m²)

Expand to show TLE details & history

TLE from 1 day ago
0 DMSP 5D-2 F13 DEB
1 40497U 95015CL  24346.88755228  .00008194  00000-0  29226-2 0  9993
2 40497  98.7103  10.5709 0004424 190.6912 169.4179 14.34427590507310
Epoch: 2024-12-11T21:18Z
Definitive object data (Epoch: 2024-12-11T21:18:04.516Z)
Latitude-0.00006°
Longitude-30.02369°
Altitude783.016 km
Speed7.461 km/s
True Right ascension00h 42m 17s
True Declination0° 00' 00"
Sunlit
Object was in daylight at TLE epoch
Visualization TLE readout
Latitude48.89232°
Longitude161.53544°
Altitude782.788 km
Speed7.468 km/s
Apparent Right ascension16h 35m 27s
Apparent Declination10° 57' 12"
Sunlit
Object is in daylight
Visualization observer readout
Local Sidereal Time07:33:30
Azimuth49.158° ENE
Elevation-24.523°
Doppler factor1
Orbital elements
Apogee altitude777.273 km
Perigee altitude770.944 km
Semi-major axis7,152.246 km
Eccentricity0.0004424
Inclination98.7103°
RAAN10.5709°
Arg. of periapsis190.6912°
True anomaly169.4272°
Mean anomaly169.4179°
Eccentric anomaly169.42255°
Mean motion3.58822 °/min
BSTAR0.0029226
Orbital period100.33 mins
Loading maneuver chart data...

DMSP 5D-2 F13 DEB Visibility forecast

Observer location: undefined°, undefined

Span
Click to sort rows by Start time (UTC) header in descending order
Start Az.
Max El. time (UTC)
Max El. Az.
Max El.
End time (UTC)
End Az.
8 mins2024-12-13 14:03:47.714Z32.888° NE2024-12-13 14:07:47.714Z90.364° ESE30.909°2024-12-13 14:11:47.714Z159.702° S
6 mins2024-12-13 15:44:47.714Z331.407° NNW2024-12-13 15:46:47.714Z299.259° NW23.285°2024-12-13 15:50:47.714Z242.492° WSW
8 mins2024-12-14 01:19:47.714Z141.787° SSE2024-12-14 01:23:47.714Z59.707° ENE37.815°2024-12-14 01:27:47.714Z359.034° N
5 mins2024-12-14 03:00:47.714Z237.343° WSW2024-12-14 03:02:47.714Z264.466° W17.153°2024-12-14 03:05:47.714Z303.889° NW
|